• Join FlightAware (Why Join?)
  • Login
  • US Flag 
12:06AM EST


 

Airport Tracker/Info


-or-


 

Live Flight TrackerFlight Track Log ✈ N700QA ✈ 25-Mar-2013 ✈ KLAX - KIND

Flight Track Log - Related Links

Times and Time Zones

All times are in EDT time to prevent confusion due to time zone crossing. See the N700QA flight status page for this flight to view local times or setup timezone preferences in your user account.

Time Position Orientation Groundspeed Altitude Reporting Facility
EDT Latitude Longitude Course Direction KTS MPH feet Rate Location/Type
01:10PM 33.8308 -118.5358 172° South 263 303 6,500  Level Los Angeles Center
01:11PM 33.7556 -118.5239 172° South 276 318 8,700 1,980 Climbing Los Angeles Center
01:12PM 33.6772 -118.5022 167° South 295 339 10,700 1,680 Climbing Los Angeles Center
01:13PM 33.6431 -118.4111 114° Southeast 316 364 12,200 1,860 Climbing Los Angeles Center
01:14PM 33.6383 -118.2847 93° East 323 372 14,600 1,980 Climbing Los Angeles Center
01:15PM 33.6447 -118.1744 86° East 337 388 16,400 1,560 Climbing Los Angeles Center
01:16PM 33.6428 -118.0611 91° East 340 391 17,900 1,260 Climbing Los Angeles Center
01:17PM 33.6411 -117.9433 91° East 350 403 19,100 1,620 Climbing Los Angeles Center
01:18PM 33.6431 -117.7992 89° East 360 414 21,300 1,560 Climbing Los Angeles Center
01:19PM 33.6417 -117.6764 91° East 365 420 22,400 1,200 Climbing Los Angeles Center
01:20PM 33.6406 -117.5519 91° East 373 429 23,900 1,260 Climbing Los Angeles Center
01:21PM 33.6406 -117.4244 90° East 381 438 25,100 1,020 Climbing Los Angeles Center
01:22PM 33.6397 -117.2961 90° East 386 444 26,100 960 Climbing Los Angeles Center
01:23PM 33.6397 -117.1358 90° East 397 457 27,200 780 Climbing Los Angeles Center
01:24PM 33.6378 -117.0008 91° East 403 464 27,800 720 Climbing Los Angeles Center
01:25PM 33.6369 -116.8625 90° East 411 473 28,800 960 Climbing Los Angeles Center
01:26PM 33.6364 -116.7211 90° East 413 475 29,900 960 Climbing Los Angeles Center
01:28PM 33.6347 -116.5847 91° East 410 472 30,800 780 Climbing Los Angeles Center
01:29PM 33.6331 -116.4464 91° East 412 474 31,600 780 Climbing Los Angeles Center
01:30PM 33.6306 -116.3083 91° East 412 474 32,500 900 Climbing Los Angeles Center
01:31PM 33.6308 -116.1522 90° East 406 467 33,500 900 Climbing Los Angeles Center
01:32PM 33.6742 -116.0231 68° East 388 447 34,400 660 Climbing Los Angeles Center
01:33PM 33.7139 -115.9025 68° East 391 450 34,900 240 Climbing Los Angeles Center
01:34PM 33.7553 -115.7800 68° East 394 453 35,000 60 Climbing Los Angeles Center
01:35PM 33.7969 -115.6511 69° East 408 470 35,100  Climbing Los Angeles Center
01:36PM 33.8381 -115.5186 69° East 419 482 35,100  Level Los Angeles Center
01:37PM 33.8797 -115.3867 69° East 422 486 35,100  Level Los Angeles Center
01:38PM 33.9311 -115.2244 69° East 429 494 35,100  Level Los Angeles Center
01:39PM 33.9742 -115.0878 69° East 436 502 35,100  Level Los Angeles Center
01:40PM 34.0175 -114.9503 69° East 439 505 35,100  Level Los Angeles Center
01:41PM 34.0631 -114.8114 68° East 446 513 35,100  Level Los Angeles Center
01:42PM 34.1086 -114.6731 68° East 453 521 35,100  Level Los Angeles Center
01:43PM 34.1494 -114.5331 71° East 447 514 35,100  Level Los Angeles Center
01:44PM 34.1978 -114.3653 71° East 445 512 35,100  Level Los Angeles Center
01:45PM 34.2244 -114.2558 74° East 446 513 35,100  Level Albuquerque Center
01:46PM 34.2656 -114.1122 71° East 448 516 35,100  Level Albuquerque Center
01:47PM 34.3042 -113.9731 71° East 442 509 35,100  Level Albuquerque Center
01:48PM 34.3433 -113.8314 71° East 443 510 35,100  Level Albuquerque Center
01:49PM 34.3911 -113.6619 71° East 444 511 35,100  Level Albuquerque Center
01:50PM 34.4253 -113.5292 73° East 439 505 35,100  Level Albuquerque Center
01:51PM 34.4625 -113.3917 72° East 434 499 35,100  Level Albuquerque Center
01:52PM 34.4994 -113.2503 72° East 440 506 35,100  Level Albuquerque Center
01:53PM 34.5375 -113.1108 72° East 440 506 35,100  Level Albuquerque Center
01:54PM 34.5825 -112.9444 72° East 437 503 35,100  Level Albuquerque Center
01:55PM 34.6194 -112.8044 72° East 439 505 35,100  Level Albuquerque Center
01:56PM 34.6558 -112.6647 72° East 440 506 35,100  Level Albuquerque Center
01:57PM 34.6936 -112.5283 71° East 436 502 35,100 -60 Level Albuquerque Center
01:58PM 34.7275 -112.3878 74° East 437 503 35,000  Descending Albuquerque Center
01:59PM 34.7633 -112.2192 75° East 436 502 35,100  Climbing Albuquerque Center
02:00PM 34.7964 -112.0772 74° East 437 503 35,100  Level Albuquerque Center
02:01PM 34.8281 -111.9350 75° East 440 506 35,100  Level Albuquerque Center
02:02PM 34.8600 -111.7922 75° East 440 506 35,100  Level Albuquerque Center
02:03PM 34.8947 -111.6381 75° East 443 510 35,100  Level Albuquerque Center
02:04PM 34.9269 -111.4942 75° East 441 507 35,100 -60 Level Albuquerque Center
02:06PM 34.9586 -111.3494 75° East 441 507 35,000  Descending Albuquerque Center
02:07PM 34.9911 -111.2033 75° East 445 512 35,100  Climbing Albuquerque Center
02:08PM 35.0297 -111.0261 75° East 450 518 35,100  Level Albuquerque Center
02:09PM 35.0606 -110.8781 76° East 451 519 35,100  Level Albuquerque Center
02:10PM 35.0961 -110.7153 75° East 447 514 35,100  Level Albuquerque Center
02:11PM 35.1247 -110.5747 76° East 446 513 35,100  Level Albuquerque Center
02:12PM 35.1567 -110.4361 74° East 443 510 35,100  Level Albuquerque Center
02:13PM 35.1925 -110.2719 75° East 446 513 35,100  Level Albuquerque Center
02:14PM 35.2231 -110.1317 75° East 448 516 35,100  Level Albuquerque Center
02:15PM 35.2581 -109.9661 75° East 449 517 35,100  Level Albuquerque Center
02:16PM 35.2886 -109.8231 75° East 453 521 35,100  Level Albuquerque Center
02:17PM 35.3203 -109.6522 77° East 459 528 35,100  Level Albuquerque Center
02:18PM 35.3506 -109.5086 75° East 458 527 35,100  Level Albuquerque Center
02:19PM 35.3858 -109.3408 75° East 457 526 35,100  Level Albuquerque Center
02:20PM 35.4142 -109.1956 77° East 458 527 35,100  Level Albuquerque Center
02:21PM 35.4483 -109.0275 76° East 458 527 35,100  Level Albuquerque Center
02:22PM 35.4775 -108.8825 76° East 459 528 35,100 360 Level Albuquerque Center
02:23PM 35.5186 -108.7189 73° East 454 522 35,900 720 Climbing Albuquerque Center
02:24PM 35.5586 -108.5839 70° East 444 511 36,600 480 Climbing Albuquerque Center
02:25PM 35.6006 -108.4258 72° East 439 505 37,000 180 Climbing Albuquerque Center
02:26PM 35.6381 -108.2894 71° East 441 507 37,000  Level Albuquerque Center
02:27PM 35.6803 -108.1244 72° East 451 519 37,100  Climbing Albuquerque Center
02:28PM 35.7172 -107.9847 72° East 452 520 37,100  Level Albuquerque Center
02:29PM 35.7544 -107.8436 72° East 454 522 37,100 -60 Level Albuquerque Center
02:30PM 35.7964 -107.6794 72° East 452 520 37,000  Descending Albuquerque Center
02:31PM 35.8336 -107.5378 72° East 454 522 37,100  Climbing Albuquerque Center
02:32PM 35.8758 -107.3736 72° East 452 520 37,000 -60 Descending Albuquerque Center
02:33PM 35.9122 -107.2333 72° East 450 518 37,000  Level Albuquerque Center
02:34PM 35.9544 -107.0764 72° East 452 520 37,000  Level Albuquerque Center
02:35PM 35.9917 -106.9289 73° East 450 518 37,000  Level Albuquerque Center
02:36PM 36.0294 -106.7808 72° East 451 519 37,100  Climbing Albuquerque Center
02:37PM 36.0681 -106.6308 72° East 454 522 37,000 -60 Descending Albuquerque Center
02:39PM 36.1047 -106.4828 73° East 453 521 37,000  Level Albuquerque Center
02:40PM 36.1500 -106.3044 72° East 453 521 37,000  Level Albuquerque Center
02:41PM 36.1833 -106.1519 75° East 456 525 37,000  Level Albuquerque Center
02:42PM 36.1947 -105.9897 85° East 468 539 37,100  Climbing Albuquerque Center
02:43PM 36.2097 -105.8219 84° East 475 547 37,000 -60 Descending Albuquerque Center
02:44PM 36.2300 -105.6658 81° East 474 545 37,000  Level Albuquerque Center
02:45PM 36.2517 -105.4997 81° East 469 540 37,000  Level Albuquerque Center
02:46PM 36.3017 -105.3558 67° East 454 522 37,000  Level Albuquerque Center
02:47PM 36.3497 -105.2108 68° East 449 517 37,000  Level Albuquerque Center
02:48PM 36.4014 -105.0339 70° East 459 528 37,100  Climbing Albuquerque Center
02:49PM 36.4489 -104.8836 69° East 462 532 37,000 -60 Descending Albuquerque Center
02:50PM 36.4928 -104.7342 70° East 459 528 37,000  Level Albuquerque Center
02:51PM 36.5372 -104.5842 70° East 457 526 37,000  Level Albuquerque Center
02:52PM 36.5817 -104.4350 70° East 456 525 37,000  Level Albuquerque Center
02:53PM 36.6250 -104.2867 70° East 452 520 37,000  Level Albuquerque Center
02:54PM 36.6694 -104.1383 69° East 454 522 37,000  Level Albuquerque Center
02:55PM 36.7175 -103.9794 69° East 453 521 37,000  Level Albuquerque Center
02:56PM 36.7581 -103.8403 70° East 450 518 37,000  Level Albuquerque Center
02:57PM 36.8053 -103.6756 70° East 453 521 37,000  Level Albuquerque Center
02:58PM 36.8458 -103.5339 70° East 454 522 37,000  Level Albuquerque Center
02:59PM 36.8931 -103.3683 70° East 455 524 37,000  Level Albuquerque Center
03:00PM 36.9331 -103.2261 71° East 455 524 37,000  Level Albuquerque Center
03:01PM 36.9797 -103.0589 71° East 457 526 37,000  Level Albuquerque Center
03:02PM 37.0206 -102.9150 70° East 458 527 37,000  Level Albuquerque Center
03:03PM 37.0678 -102.7444 71° East 462 532 37,000  Level Albuquerque Center
03:04PM 37.1081 -102.5972 71° East 465 535 37,000  Level Albuquerque Center
03:05PM 37.1522 -102.4453 70° East 474 545 37,000  Level Albuquerque Center
03:06PM 37.1969 -102.2747 72° East 469 540 37,000  Level Albuquerque Center
03:07PM 37.2394 -102.1233 71° East 472 543 37,000  Level Albuquerque Center
03:08PM 37.2847 -101.9439 72° East 480 552 37,100  Climbing Albuquerque Center
03:09PM 37.3114 -101.8439 71° East 477 549 37,000 -60 Descending Kansas City Center
03:10PM 37.3575 -101.6714 71° East 470 541 37,000  Level Kansas City Center
03:11PM 37.3981 -101.5197 71° East 475 547 37,000  Level Kansas City Center
03:12PM 37.4442 -101.3447 72° East 475 547 37,100  Climbing Kansas City Center
03:13PM 37.4839 -101.1950 71° East 473 544 37,100 -60 Level Kansas City Center
03:14PM 37.5311 -101.0172 71° East 474 545 37,000 -60 Descending Kansas City Center
03:15PM 37.5722 -100.8614 72° East 471 542 37,000  Level Kansas City Center
03:16PM 37.6106 -100.7044 73° East 466 536 37,000  Level Kansas City Center
03:17PM 37.6506 -100.5489 72° East 466 536 37,000  Level Kansas City Center
03:18PM 37.6919 -100.3861 72° East 463 533 37,000  Level Kansas City Center
03:19PM 37.7306 -100.2378 72° East 465 535 37,000  Level Kansas City Center
03:21PM 37.7750 -100.0622 72° East 469 540 37,000  Level Kansas City Center
03:22PM 37.8119 -99.9125 73° East 466 536 37,000  Level Kansas City Center
03:23PM 37.8553 -99.7372 73° East 468 539 37,000  Level Kansas City Center
03:24PM 37.8917 -99.5878 73° East 464 534 37,000  Level Kansas City Center
03:25PM 37.9300 -99.4236 73° East 466 536 37,000  Level Kansas City Center
03:26PM 37.9672 -99.2653 73° East 467 537 37,000  Level Kansas City Center
03:27PM 38.0053 -99.1097 73° East 463 533 37,000  Level Kansas City Center
03:28PM 38.0433 -98.9522 73° East 466 536 37,000  Level Kansas City Center
03:29PM 38.0875 -98.7644 73° East 463 533 37,000  Level Kansas City Center
03:30PM 38.1258 -98.6089 73° East 462 532 37,000  Level Kansas City Center
03:31PM 38.1642 -98.4489 73° East 469 540 37,000  Level Kansas City Center
03:32PM 38.2000 -98.2906 74° East 463 533 37,000  Level Kansas City Center
03:33PM 38.2364 -98.1336 74° East 459 528 37,000  Level Kansas City Center
03:34PM 38.2722 -97.9772 74° East 457 526 37,000  Level Kansas City Center
03:35PM 38.3086 -97.8208 73° East 455 524 37,000  Level Kansas City Center
03:36PM 38.3453 -97.6647 73° East 457 526 37,000  Level Kansas City Center
03:37PM 38.3878 -97.4778 74° East 455 524 37,000  Level Kansas City Center
03:38PM 38.4231 -97.3217 74° East 457 526 37,000  Level Kansas City Center
03:39PM 38.4589 -97.1636 74° East 456 525 37,000  Level Kansas City Center
03:40PM 38.4942 -97.0036 74° East 453 521 37,000  Level Kansas City Center
03:41PM 38.5294 -96.8419 74° East 454 522 37,000  Level Kansas City Center
03:42PM 38.5639 -96.6817 75° East 451 519 37,000  Level Kansas City Center
03:43PM 38.5986 -96.5225 74° East 450 518 37,000  Level Kansas City Center
03:44PM 38.6317 -96.3622 75° East 448 516 37,000  Level Kansas City Center
03:45PM 38.6661 -96.2031 74° East 448 516 37,000  Level Kansas City Center
03:46PM 38.6964 -96.0561 75° East 446 513 37,000  Level Kansas City Center
03:47PM 38.7300 -95.8964 75° East 445 512 37,000  Level Kansas City Center
03:48PM 38.7656 -95.7264 75° East 455 524 37,000  Level Kansas City Center
03:49PM 38.7947 -95.5828 75° East 446 513 37,000  Level Kansas City Center
03:50PM 38.8303 -95.4131 75° East 443 510 37,000  Level Kansas City Center
03:51PM 38.8603 -95.2683 75° East 441 507 37,000  Level Kansas City Center
03:53PM 38.8944 -95.0981 75° East 444 511 37,000  Level Kansas City Center
03:54PM 38.9242 -94.9522 75° East 444 511 37,000  Level Kansas City Center
03:55PM 38.9586 -94.7806 75° East 448 516 37,000  Level Kansas City Center
03:56PM 38.9883 -94.6325 75° East 447 514 37,000  Level Kansas City Center
03:57PM 39.0167 -94.4847 76° East 447 514 37,100  Climbing Kansas City Center
03:58PM 39.0486 -94.3108 77° East 449 517 37,000 -60 Descending Kansas City Center
03:59PM 39.0772 -94.1622 76° East 449 517 37,000  Level Kansas City Center
04:00PM 39.1103 -93.9881 76° East 450 518 37,000  Level Kansas City Center
04:01PM 39.1392 -93.8381 76° East 451 519 37,000  Level Kansas City Center
04:02PM 39.1708 -93.6631 77° East 452 520 37,000  Level Kansas City Center
04:03PM 39.1994 -93.5133 76° East 452 520 37,100  Climbing Kansas City Center
04:04PM 39.2303 -93.3456 77° East 472 543 37,100 -60 Level Kansas City Center
04:05PM 39.2589 -93.1906 77° East 459 528 37,000  Descending Kansas City Center
04:06PM 39.2875 -93.0400 76° East 443 510 37,100  Climbing Kansas City Center
04:07PM 39.3200 -92.8467 78° East 460 529 37,000  Descending Kansas City Center
04:08PM 39.3478 -92.6925 77° East 452 520 37,100  Climbing Kansas City Center
04:09PM 39.3753 -92.5372 77° East 448 516 37,100  Level Kansas City Center
04:10PM 39.4033 -92.3853 77° East 444 511 37,100  Level Kansas City Center
04:11PM 39.4300 -92.2303 77° East 444 511 37,100  Level Kansas City Center
04:12PM 39.4628 -92.0419 77° East 449 517 37,100  Level Kansas City Center
04:13PM 39.4908 -91.8814 77° East 457 526 37,100  Level Kansas City Center
04:14PM 39.5175 -91.7286 77° East 447 514 37,100  Level Kansas City Center
04:15PM 39.5422 -91.5731 78° East 445 512 37,100  Level Kansas City Center
04:16PM 39.5672 -91.4172 78° East 446 513 37,100  Level Kansas City Center
04:17PM 39.5975 -91.2317 78° East 444 511 37,100  Level Kansas City Center
04:18PM 39.6233 -91.0700 78° East 450 518 37,100  Level Kansas City Center
04:19PM 39.6500 -90.9072 78° East 456 525 37,100 -180 Level Kansas City Center
04:20PM 39.6756 -90.7489 78° East 452 520 36,800 -600 Descending Kansas City Center
04:21PM 39.7006 -90.5903 78° East 450 518 35,900 -840 Descending Kansas City Center
04:22PM 39.7250 -90.4369 78° East 444 511 35,100 -480 Descending Kansas City Center
04:23PM 39.7525 -90.2619 78° East 430 495 35,000 -60 Descending Kansas City Center
04:25PM 39.7758 -90.1219 78° East 417 480 35,000  Level Kansas City Center
04:26PM 39.7967 -89.9803 79° East 408 470 35,000  Level Kansas City Center
04:27PM 39.8172 -89.8419 79° East 398 458 35,000 -300 Level Kansas City Center
04:28PM 39.8389 -89.7014 79° East 398 458 34,500 -600 Descending Kansas City Center
04:29PM 39.8442 -89.5522 87° East 411 473 33,800 -840 Descending Kansas City Center
04:30PM 39.8433 -89.3817 90° East 401 461 32,800 -960 Descending Kansas City Center
04:31PM 39.8447 -89.2450 89° East 389 448 31,900 -900 Descending Kansas City Center
04:32PM 39.8450 -89.1094 90° East 380 437 31,000 -960 Descending Kansas City Center
04:33PM 39.8447 -88.9750 90° East 375 432 30,000 -900 Descending Kansas City Center
04:34PM 39.8461 -88.8422 89° East 370 426 29,200 -1,200 Descending Kansas City Center
04:35PM 39.8467 -88.7094 90° East 369 425 27,600 -1,800 Descending Kansas City Center
04:36PM 39.8469 -88.5414 90° East 383 441 25,600 -1,500 Descending Kansas City Center
04:37PM 39.8442 -88.4008 91° East 389 448 24,500 -780 Descending Kansas City Center
04:38PM 39.8447 -88.2644 90° East 383 441 24,000 -300 Descending Kansas City Center
04:39PM 39.8439 -88.1378 90° East 372 428 24,000 60 Level Kansas City Center
04:39PM 39.8428 -88.0794 91° East 365 420 24,100  Climbing Indianapolis Center
04:40PM 39.8411 -87.9469 91° East 364 419 24,000 -540 Descending Indianapolis Center
04:41PM 39.8406 -87.8119 90° East 370 426 23,000 -1,260 Descending Indianapolis Center
04:42PM 39.8386 -87.6786 91° East 368 423 21,500 -1,560 Descending Indianapolis Center
04:43PM 39.8364 -87.5461 91° East 365 420 19,900 -1,500 Descending Indianapolis Center
04:44PM 39.8358 -87.4164 90° East 358 412 18,400 -1,500 Descending Indianapolis Center
04:45PM 39.8328 -87.2878 92° East 355 409 16,800 -1,620 Descending Indianapolis Center
04:46PM 39.8322 -87.1644 90° East 343 395 15,100 -2,040 Descending Indianapolis Center
04:47PM 39.8303 -87.0431 91° East 336 387 12,700 -1,500 Descending Indianapolis Center
04:49PM 39.8258 -86.9169 93° East 298 343 12,000 -1,200 Descending Indianapolis Center
04:50PM 39.8211 -86.8203 94° East 268 308 10,300 -1,680 Descending Indianapolis Center
04:51PM 39.8228 -86.7208 89° East 270 311 8,600 -1,560 Descending Indianapolis Center
04:52PM 39.8192 -86.6264 93° East 263 303 7,200 -780 Descending Indianapolis Center
04:53PM 39.8172 -86.5389 92° East 246 283 7,000 -60 Descending Indianapolis Center
04:54PM 39.8183 -86.4508 89° East 241 277 7,100  Climbing Indianapolis Center
04:55PM 39.7639 -86.4042 147° Southeast 253 291 7,100 -780 Level Indianapolis Center
04:56PM 39.7089 -86.4492 212° Southwest 244 281 5,600 -1,320 Descending Indianapolis Center
04:57PM 39.6603 -86.5181 228° Southwest 229 264 4,400 -720 Descending Indianapolis Center
04:58PM 39.6206 -86.5744 228° Southwest 218 251 4,200 -180 Descending Indianapolis Center
04:59PM 39.5642 -86.5547 165° South 221 254 4,100 -300 Descending Indianapolis Center
05:00PM 39.5578 -86.4842 97° East 217 250 3,700 -300 Descending Indianapolis Center
05:01PM 39.5939 -86.4392 44° Northeast 189 217 3,500 -360 Descending Indianapolis Center
05:02PM 39.6278 -86.3992 42° Northeast 175 201 3,000 -720 Descending Indianapolis Center
05:03PM 39.6500 -86.3667 48° Northeast 146 168 2,300 -840 Descending Indianapolis TRACON
05:04PM 39.6833 -86.3333 38° Northeast 146 168 1,600 -480 Descending Indianapolis TRACON
05:06PM 39.7158 -86.2839 49° Northeast 56 64 800 -240 Descending Indianapolis Center
05:07PM 39.7189 -86.2783 54° Northeast 29 33 800  Level Indianapolis Center
05:08PM 39.7239 -86.2711 48° Northeast 28 32 800  Level Indianapolis Center
05:09PM 39.7261 -86.2728 330° Northwest 17 20 800  Level Indianapolis Center
05:10PM 39.7264 -86.2728 360° North 10 12 800  Level Indianapolis Center